> Flugplatz > 
Stacks Image 3
Aktuelle METAR Daten (Memmingen, Friedrichshafen, Laupheim):
2016/12/05 11:50 EDJA 051150Z 24005KT 210V270 CAVOK 02/M02 Q1026
2016/12/05 11:50 EDNY 051150Z VRB01KT 3400 BR OVC002 01/00 Q1028
2016/12/05 11:55 ETHL 051155Z 22005KT 3000 BR OVC003 M02/M03 Q1026 YLO AMB TEMPO YLO
Sicherheits- und Servicehinweise:

Bitte achten Sie beim Anflug auf mögliche Fall­schirm­springer auf der Nordseite des Platzes, kontaktieren Sie zur Sicherheit den Flugleiter auf Leutkirch INFO 122,875.

Zollabfertigung:
für Ein- und Ausflug bei Voranmeldung mindestens 3 Stunden, nur Personenverkehr – keine Warenabfertigung.

Günstig Tanken:
Avgas 100 II · Super 95 · Jet A1 · Diesel

Aktuelles:

Winterflugbetrieb vom 01.11.16 – 14.03.17:
Der Flugplatz ist bei Schneefall PPR 2 HR, die Flugleitung ist täglich mindestens von 10:00 bis 15:00 Uhr besetzt.
Am 25.12.16 und 01.01.17 ist der Flugplatz geschlossen.

Weitere Informationen finden Sie in unserem Newsbereich.

Nutzen Sie unsere Online-Anmeldung zur Zoll- und Passkontrolle.